Location: Canyon Rim
(40.8777°N, 111.8641°W)
Time: 08:43:46
(UTC+00:00)

X-37B - Pass Details

Date: 23 April 2021
Orbit: 386 x 389 km, 45.0° (Epoch: 08 May)

Event Time Altitude Azimuth Distance (km) Brightness Sun altitude
Exits shadow 10:55:09 23° 312° (NW) 867 2.2 -17.9°
Maximum altitude 10:56:34 37° 4° (N) 617 1.9 -17.7°
Drops below altitude 10° 10:59:34 10° 74° (ENE) 1,413 4.5 -17.2°
Sets 11:01:44 0° 83° (E) 2,266 5.6 -16.9°
